Location: Mascot Post Office (historical)
(40.2645°N, 99.5462°W)
Time: 17:26:55
(UTC+00:00)

Cosmos 1980 - Pass Details

Date: 14 July 2020
Orbit: 839 x 847 km, 71.0° (Epoch: 04 August)

Event Time Altitude Azimuth Distance (km) Brightness Sun altitude
Rises 02:40:56 0° 180° (S) 3,376 6.5 -6.2°
Reaches altitude 10° 02:43:30 10° 173° (S) 2,445 5.7 -6.6°
Maximum altitude 02:48:40 39° 105° (ESE) 1,230 4.1 -7.4°
Drops below altitude 10° 02:53:52 10° 38° (NE) 2,462 6.1 -8.2°
Sets 02:56:27 0° 31° (NNE) 3,402 6.9 -8.6°
